Tracking 19484 objects as of 19-Jan-2019
HD Live streaming from Space Station
objects crossing your sky now

CAPELLA-1

Track CAPELLA-1 now!
10-day predictions


NORAD ID: 43791
Int'l Code: 2018-099AK
Perigee: 578.5 km
Apogee: 597.0 km
Inclination: 97.8 °
Period: 96.3 minutes
Semi major axis: 6958 km
RCS: Unknown
Launch date: December 3, 2018
Source: United States (US)
Launch site: AIR FORCE WESTERN TEST RANGE (AFWTR)
aabbcc
Your satellite tracking list
Your tracking list is empty




NASA's NSSDC Master Catalog

Two Line Element Set (TLE):
1 43791U 18099AK  19018.18299465  .00001067  00000-0  10130-3 0  9996
2 43791  97.7642  91.9195 0013271 120.2992 239.9544 14.95563927  6782
Source of the keplerian elements: AFSPC